Flag for United Kingdom Weather past 2 weeks in York, England, United Kingdom

Now
61 °F

Clear.


Feels Like: 61 °F
Forecast: 57 / 82 °F
Wind: 6 mph from Northwest

Location: Linton-On-Ouse

Current Time: Jul 26, 2014 at 12:44:13 AM

Latest Report: Jul 25, 2014 at 11:50 PM


Visibility: N/A

Pressure: 30.09 "Hg

Humidity: 88%

Dew point: 57 °F

Location of YorkLocation

Historic Weather in York — Graph

°F

York temperature yesterday

Maximum temperature yesterday: 81 °F (at 4:50 PM)
Minimum temperature yesterday: 59 °F (at 5:50 AM)
Average temperature yesterday: 69 °F

Past Weeks' High & Low Weather Summary

 TemperatureHumidityPressure
High81 °F (Jul 24, 1:50 PM)100% (Jul 13, 12:50 AM)30.30 "Hg (Jul 13, 12:50 AM)
Low50 °F (Jul 14, 4:50 AM)34% (Jul 24, 2:50 PM)29.68 "Hg (Jul 13, 5:50 AM)
Average65 °F75%30.01 "Hg
* Reported Jul 10 10:50 PM — Jul 25 10:50 PM, York, Weather by CustomWeather, © 2014

Note: Actual official high and low records may vary slightly from our data, if they occured in-between our weather recording intervals... More about our weather records

Advertising

York weather history for previous 24 hours

 ConditionsComfort  
Time TempWeatherWind HumidityBarometerVisibility
10:50 PM
Jul 25
64 °FMild.3 mph78%30.09 "HgN/A
9:50 PM66 °FMild.6 mph68%30.07 "HgN/A
8:50 PM70 °FSunny.6 mph64%30.07 "HgN/A
7:50 PM73 °FMild.9 mph53%30.07 "HgN/A
6:50 PM77 °FWarm.12 mph47%30.07 "HgN/A
5:50 PM79 °FSunny.12 mph45%30.07 "HgN/A
4:50 PM81 °FSunny.12 mph34%30.07 "Hg10 mi
3:50 PM79 °FSunny.10 mph39%30.07 "Hg10 mi
2:50 PM79 °FSunny.9 mph39%30.07 "Hg10 mi
1:50 PM79 °FSunny.8 mph45%30.09 "Hg10 mi
12:50 PM79 °FSunny.9 mph42%30.09 "Hg10 mi
11:50 AM75 °FSunny.7 mph57%30.12 "Hg10 mi
10:50 AM70 °FScattered clouds.7 mph69%30.12 "Hg5 mi
9:50 AM66 °FScattered clouds.12 mph78%30.12 "Hg4 mi
8:50 AM63 °FScattered clouds.12 mph88%30.12 "Hg2 mi
7:50 AM63 °FFog.10 mph88%30.12 "Hg2 mi
6:50 AM61 °FFog.10 mph88%30.12 "Hg2 mi
5:50 AM59 °FLow clouds.9 mph100%30.12 "Hg2 mi
4:50 AM61 °FLow clouds.10 mph94%30.12 "Hg2 mi
3:50 AM61 °FLow clouds.9 mph94%30.12 "Hg1 mi
2:50 AM61 °FLow clouds.12 mph94%30.12 "Hg1 mi
1:50 AM61 °FLow clouds.9 mph94%30.15 "Hg2 mi
12:50 AM61 °FPassing clouds.9 mph94%30.15 "Hg1 mi
Weather by CustomWeather, © 2014

See weather overviewHow to use our weather pages